sat.trackr.live / text

‹ back to catalog

STARLINK-30982

NORAD 58512 · 2023-191E

PAYLOAD ACTIVE UNKNOWN

§ Identity

Operator
Country
US
Launch date
2023-12-07
Launch site
AFETR
Launch vehicle
Mass (kg)
RCS (m²)

Purposes: comms

External: N2YO · Heavens-Above · Gunter

§ Orbital elements

Epoch: 2026-05-25T00:55:38.000928Z

Period
94.27 min
Inclination
43.0018°
Eccentricity
0.0000516
Mean motion
15.27585285 rev/d
Perigee alt
482.7 km
Apogee alt
483.4 km
Semi-major
6,861.2 km
B*
4.6769e-5
RAAN
32.6187°
Arg perigee
269.3370°
Mean anomaly
90.7423°
Rev number
13,714

§ Raw data

STARLINK-309821 58512U 23191E   26145.03863427  .00001026  00000+0  46769-4 0  99922 58512  43.0018  32.6187 0000516 269.3370  90.7423 15.27585285137147

JSON: /api/v1/satellites/58512 · /tle

For live sub-satellite position, see the globe view (requires WebGL).

§ Visibility from observer

Set your observer location to see the next 7 days of passes ≥ 10°. The values pass through the URL so the page stays shareable.

No JS? Fill the form by hand. The geolocation button needs JavaScript.